Location: Peebles
(55.6412°N, 3.1714°W)
Time: 20:03:11
(UTC+01:00)

Envisat - Pass Details

Date: 28 February 2024
Orbit: 762 x 764 km, 98.3° (Epoch: 21 April)

Event Time Altitude Azimuth Distance (km) Brightness Sun altitude
Rises 04:52:41 0° 12° (NNE) 3,246 6.6 -19.7°
Reaches altitude 10° 04:55:06 10° 6° (N) 2,316 5.7 -19.4°
Maximum altitude 04:59:50 40° 298° (WNW) 1,118 3.5 -18.7°
Enters shadow 05:01:03 35° 265° (W) 1,232 3.5 -18.5°
